Weather History for Needles, CA

Change the Weather History Date:

Wednesday, January 9, 2013

  Actual Average Record
Temperature  
Mean Temperature 60 °F -  
Max Temperature 68 °F 61 °F 73 °F (1990)
Min Temperature 51 °F 39 °F 28 °F (1971)
Degree Days  
Heating Degree Days 6    
Growing Degree Days 10 (Base 50)    
Moisture  
Dew Point 29 °F    
Average Humidity 34    
Maximum Humidity 44    
Minimum Humidity 22    
Precipitation  
Precipitation 0.00 in - - ()
Sea Level Pressure  
Sea Level Pressure 30.05 in    
Wind  
Wind Speed 8 mph (NW)    
Max Wind Speed 13 mph    
Max Gust Speed -    
Visibility 10 miles    
Events      
Averages and records for this station are not official NWS values.
T = Trace of Precipitation, MM = Missing Value Source: NWS Daily Summary

Daily Weather History Graph

Daily Weather History Graph

Search for Another Location

Airport:

Trip Planner

Search our weather history database for the weather conditions in past years. The results will help you decide how hot, cold, wet, or windy it might be!

Date:

Astronomy

Jan. 09, 2013 Rise Set
Actual Time 6:46 AM PST 4:45 PM PST
Civil Twilight 6:18 AM PST 5:13 PM PST
Nautical Twilight 5:47 AM PST 5:44 PM PST
Astronomical Twilight 5:16 AM PST 6:14 PM PST
Moon 4:29 AM PST (1/9) 2:51 PM PST (1/9)
Length of Visible Light 10h 54m
Length of Day
9h 59m
Waning Crescent, 6% of the Moon is Illuminated
Jan 9
Waning Crescent
Jan 11
New
Jan 18
First Quarter
Jan 26
Full
Feb 3
Last Quarter

Hourly Weather History & Observations

Time (PST) Temp. Dew Point Humidity Pressure Visibility Wind Dir Wind Speed Gust Speed Precip Events Conditions
12:56 AM 57.9 °F 28.0 °F 32% 30.10 in 10.0 mi North 11.5 mph - N/A   Clear
1:56 AM 57.9 °F 28.9 °F 33% 30.11 in 10.0 mi North 12.7 mph - N/A   Clear
2:56 AM 55.9 °F 28.9 °F 36% 30.12 in 10.0 mi NNW 8.1 mph - N/A   Clear
3:56 AM 55.0 °F 28.9 °F 37% 30.11 in 10.0 mi North 10.4 mph - N/A   Clear
4:56 AM 54.0 °F 30.0 °F 40% 30.11 in 10.0 mi North 10.4 mph - N/A   Clear
5:56 AM 55.0 °F 28.9 °F 37% 30.11 in 10.0 mi North 9.2 mph - N/A   Clear
7:56 AM 55.0 °F 30.0 °F 38% 30.17 in 10.0 mi NW 6.9 mph - N/A   Clear
8:56 AM 59.0 °F 30.0 °F 33% 30.18 in 10.0 mi NNW 9.2 mph - N/A   Clear
9:56 AM 61.0 °F 30.0 °F 31% 30.16 in 10.0 mi North 10.4 mph - N/A   Clear
10:56 AM 62.1 °F 30.0 °F 30% 30.13 in 10.0 mi North 9.2 mph - N/A   Clear
11:56 AM 64.9 °F 30.0 °F 27% 30.09 in 10.0 mi NNE 9.2 mph - N/A   Clear
12:56 PM 66.9 °F 28.9 °F 24% 30.05 in 10.0 mi Variable 3.5 mph - N/A   Clear
1:56 PM 68.0 °F 28.9 °F 23% 30.03 in 10.0 mi Calm Calm - N/A   Clear
2:56 PM 66.9 °F 28.0 °F 23% 30.01 in 10.0 mi Calm Calm - N/A   Clear
3:56 PM 68.0 °F 28.0 °F 22% 30.00 in 10.0 mi Calm Calm - N/A   Clear
4:56 PM 61.0 °F 30.9 °F 32% 29.99 in 10.0 mi Calm Calm - N/A   Clear
6:56 PM 55.0 °F 30.0 °F 38% 29.96 in 10.0 mi West 8.1 mph - N/A   Clear
7:56 PM 54.0 °F 30.0 °F 40% 29.95 in 10.0 mi WSW 8.1 mph - N/A   Clear
8:56 PM 54.0 °F 28.0 °F 37% 29.94 in 10.0 mi WSW 9.2 mph - N/A   Clear
9:56 PM 52.0 °F 28.9 °F 41% 29.93 in 10.0 mi Calm Calm - N/A   Clear
10:56 PM 51.1 °F 30.0 °F 44% 29.90 in 10.0 mi WSW 5.8 mph - N/A   Clear
11:56 PM 51.1 °F 30.0 °F 44% 29.87 in 10.0 mi NW 4.6 mph - N/A   Clear